owner,sensor,date,latitude,longitude,vertical_datum,sea_water_practical_salinity,qcFlag 
DISL,ioos:station:DISL:DISL:1,2009-12-01T00:00:00Z,30.2513,-88.0778,7.57,10.88,1111122 
DISL,ioos:station:DISL:DISL:1,2009-12-01T00:30:00Z,30.2513,-88.0778,7.51,9.39,1111122 
DISL,ioos:station:DISL:DISL:1,2009-12-01T01:00:00Z,30.2513,-88.0778,7.77,9.98,1111122 
DISL,ioos:station:DISL:DISL:1,2009-12-01T01:30:00Z,30.2513,-88.0778,7.59,9.67,1111122 
DISL,ioos:station:DISL:DISL:1,2009-12-01T02:00:00Z,30.2513,-88.0778,7.76,9.73,1111122 
DISL,ioos:station:DISL:DISL:1,2009-12-01T02:30:00Z,30.2513,-88.0778,7.5,9.85,1111122 
DISL,ioos:station:DISL:DISL:1,2009-12-01T03:00:00Z,30.2513,-88.0778,7.46,10.21,1111122 
DISL,ioos:station:DISL:DISL:1,2009-12-01T03:30:00Z,30.2513,-88.0778,7.27,10.18,1111122 
DISL,ioos:station:DISL:DISL:1,2009-12-01T04:00:00Z,30.2513,-88.0778,7.29,10.26,1111122 
DISL,ioos:station:DISL:DISL:1,2009-12-01T04:30:00Z,30.2513,-88.0778,7.39,10.29,1111122 
DISL,ioos:station:DISL:DISL:1,2009-12-01T05:00:00Z,30.2513,-88.0778,7.11,10.27,1111122 
DISL,ioos:station:DISL:DISL:1,2009-12-01T05:30:00Z,30.2513,-88.0778,6.553,10.31,1111122 
DISL,ioos:station:DISL:DISL:1,2009-12-01T06:00:00Z,30.2513,-88.0778,6.643,10.28,1111122 
DISL,ioos:station:DISL:DISL:1,2009-12-01T06:30:00Z,30.2513,-88.0778,6.549,10.33,1111122 
DISL,ioos:station:DISL:DISL:1,2009-12-01T07:00:00Z,30.2513,-88.0778,6.368,9.9,1111122 
DISL,ioos:station:DISL:DISL:1,2009-12-01T07:30:00Z,30.2513,-88.0778,6.077,9.78,1111122 
DISL,ioos:station:DISL:DISL:1,2009-12-01T08:00:00Z,30.2513,-88.0778,6.559,10.2,1111122 
DISL,ioos:station:DISL:DISL:1,2009-12-01T08:30:00Z,30.2513,-88.0778,5.889,10.55,1111122 
DISL,ioos:station:DISL:DISL:1,2009-12-01T09:00:00Z,30.2513,-88.0778,5.934,10.84,1111122 
DISL,ioos:station:DISL:DISL:1,2009-12-01T09:30:00Z,30.2513,-88.0778,6.356,12.03,1111122 
DISL,ioos:station:DISL:DISL:1,2009-12-01T10:00:00Z,30.2513,-88.0778,5.97,12.57,1111122 
DISL,ioos:station:DISL:DISL:1,2009-12-01T10:30:00Z,30.2513,-88.0778,5.869,12.94,1111122 
DISL,ioos:station:DISL:DISL:1,2009-12-01T11:00:00Z,30.2513,-88.0778,5.677,15.74,1111122 
DISL,ioos:station:DISL:DISL:1,2009-12-01T11:30:00Z,30.2513,-88.0778,5.577,16.18,1111122 
DISL,ioos:station:DISL:DISL:1,2009-12-01T12:00:00Z,30.2513,-88.0778,5.321,16.06,1111122 
DISL,ioos:station:DISL:DISL:1,2009-12-01T12:30:00Z,30.2513,-88.0778,5.625,15.94,1111122 
DISL,ioos:station:DISL:DISL:1,2009-12-01T13:00:00Z,30.2513,-88.0778,5.786,15.84,1111122 
DISL,ioos:station:DISL:DISL:1,2009-12-01T13:30:00Z,30.2513,-88.0778,5.59,15.9,1111122 
DISL,ioos:station:DISL:DISL:1,2009-12-01T14:00:00Z,30.2513,-88.0778,5.6,16.02,1111122 
DISL,ioos:station:DISL:DISL:1,2009-12-01T14:30:00Z,30.2513,-88.0778,5.641,15.88,1111122 
DISL,ioos:station:DISL:DISL:1,2009-12-01T15:00:00Z,30.2513,-88.0778,5.651,15.9,1111122 
DISL,ioos:station:DISL:DISL:1,2009-12-01T15:30:00Z,30.2513,-88.0778,5.803,16.17,1111122 
DISL,ioos:station:DISL:DISL:1,2009-12-01T16:00:00Z,30.2513,-88.0778,5.767,17.51,1111122 
DISL,ioos:station:DISL:DISL:1,2009-12-01T16:30:00Z,30.2513,-88.0778,5.949,18.31,1111122 
DISL,ioos:station:DISL:DISL:1,2009-12-01T17:00:00Z,30.2513,-88.0778,6.062,18.14,1111122 
DISL,ioos:station:DISL:DISL:1,2009-12-01T17:30:00Z,30.2513,-88.0778,6.058,17.84,1111122 
DISL,ioos:station:DISL:DISL:1,2009-12-01T18:00:00Z,30.2513,-88.0778,6.066,17.66,1111122 
DISL,ioos:station:DISL:DISL:1,2009-12-01T18:30:00Z,30.2513,-88.0778,6.222,17.44,1111122 
DISL,ioos:station:DISL:DISL:1,2009-12-01T19:00:00Z,30.2513,-88.0778,6.286,16.47,1111122 
DISL,ioos:station:DISL:DISL:1,2009-12-01T19:30:00Z,30.2513,-88.0778,6.498,26.05,1111122 
DISL,ioos:station:DISL:DISL:1,2009-12-01T20:00:00Z,30.2513,-88.0778,6.713,30.66,1111122 
DISL,ioos:station:DISL:DISL:1,2009-12-01T20:30:00Z,30.2513,-88.0778,6.758,33.37,1111122 
DISL,ioos:station:DISL:DISL:1,2009-12-01T21:00:00Z,30.2513,-88.0778,6.484,33.76,1111122 
DISL,ioos:station:DISL:DISL:1,2009-12-01T21:30:00Z,30.2513,-88.0778,7.07,36.1,1111122 
DISL,ioos:station:DISL:DISL:1,2009-12-01T22:00:00Z,30.2513,-88.0778,6.957,34.75,1111122 
DISL,ioos:station:DISL:DISL:1,2009-12-01T22:30:00Z,30.2513,-88.0778,6.982,34.88,1111122 
DISL,ioos:station:DISL:DISL:1,2009-12-01T23:00:00Z,30.2513,-88.0778,7.55,34.82,1111122 
DISL,ioos:station:DISL:DISL:1,2009-12-01T23:30:00Z,30.2513,-88.0778,7.28,34.99,1111122 
DISL,ioos:station:DISL:DISL:1,2009-12-02T00:00:00Z,30.2513,-88.0778,7.94,34.64,1111122 
DISL,ioos:station:DISL:DISL:1,2009-12-02T00:30:00Z,30.2513,-88.0778,7.75,35.12,1111122 
DISL,ioos:station:DISL:DISL:1,2009-12-02T01:00:00Z,30.2513,-88.0778,7.88,34.42,1111122 
DISL,ioos:station:DISL:DISL:1,2009-12-02T01:30:00Z,30.2513,-88.0778,8.28,34.08,1111122 
DISL,ioos:station:DISL:DISL:1,2009-12-02T02:00:00Z,30.2513,-88.0778,8.19,33.65,1111122 
DISL,ioos:station:DISL:DISL:1,2009-12-02T02:30:00Z,30.2513,-88.0778,8.36,34.39,1111122 
DISL,ioos:station:DISL:DISL:1,2009-12-02T03:00:00Z,30.2513,-88.0778,8.56,33.17,1111122 
DISL,ioos:station:DISL:DISL:1,2009-12-02T03:30:00Z,30.2513,-88.0778,8.42,33.97,1111122 
DISL,ioos:station:DISL:DISL:1,2009-12-02T04:00:00Z,30.2513,-88.0778,8.17,34.54,1111122 
DISL,ioos:station:DISL:DISL:1,2009-12-02T04:30:00Z,30.2513,-88.0778,8.54,34.56,1111122 
DISL,ioos:station:DISL:DISL:1,2009-12-02T05:00:00Z,30.2513,-88.0778,8.7,27.39,1111122 
DISL,ioos:station:DISL:DISL:1,2009-12-02T05:30:00Z,30.2513,-88.0778,8.52,19.61,1111122 
DISL,ioos:station:DISL:DISL:1,2009-12-02T06:00:00Z,30.2513,-88.0778,8.03,19.53,1111122 
DISL,ioos:station:DISL:DISL:1,2009-12-02T06:30:00Z,30.2513,-88.0778,8.03,28.65,1111122 
DISL,ioos:station:DISL:DISL:1,2009-12-02T07:00:00Z,30.2513,-88.0778,8.32,24.39,1111122 
DISL,ioos:station:DISL:DISL:1,2009-12-02T07:30:00Z,30.2513,-88.0778,8.41,21.7,1111122 
DISL,ioos:station:DISL:DISL:1,2009-12-02T08:00:00Z,30.2513,-88.0778,8.13,20.63,1111122 
DISL,ioos:station:DISL:DISL:1,2009-12-02T08:30:00Z,30.2513,-88.0778,7.86,20.61,1111122 
DISL,ioos:station:DISL:DISL:1,2009-12-02T09:00:00Z,30.2513,-88.0778,7.67,22.42,1111122 
DISL,ioos:station:DISL:DISL:1,2009-12-02T09:30:00Z,30.2513,-88.0778,7.45,24.21,1111122 
DISL,ioos:station:DISL:DISL:1,2009-12-02T10:00:00Z,30.2513,-88.0778,7.28,25.29,1111122 
DISL,ioos:station:DISL:DISL:1,2009-12-02T10:30:00Z,30.2513,-88.0778,7.36,25.39,1111122 
DISL,ioos:station:DISL:DISL:1,2009-12-02T11:00:00Z,30.2513,-88.0778,6.887,25.61,1111122 
DISL,ioos:station:DISL:DISL:1,2009-12-02T11:30:00Z,30.2513,-88.0778,7.14,24.79,1111122 
DISL,ioos:station:DISL:DISL:1,2009-12-02T12:00:00Z,30.2513,-88.0778,6.915,23.34,1111122 
DISL,ioos:station:DISL:DISL:1,2009-12-02T12:30:00Z,30.2513,-88.0778,7.07,22.22,1111122 
DISL,ioos:station:DISL:DISL:1,2009-12-02T13:00:00Z,30.2513,-88.0778,6.867,18.87,1111122 
DISL,ioos:station:DISL:DISL:1,2009-12-02T13:30:00Z,30.2513,-88.0778,6.743,19.01,1111122 
DISL,ioos:station:DISL:DISL:1,2009-12-02T14:00:00Z,30.2513,-88.0778,6.723,17.93,1111122 
DISL,ioos:station:DISL:DISL:1,2009-12-02T14:30:00Z,30.2513,-88.0778,6.711,16.88,1111122 
DISL,ioos:station:DISL:DISL:1,2009-12-02T15:00:00Z,30.2513,-88.0778,6.729,16.35,1111122 
DISL,ioos:station:DISL:DISL:1,2009-12-02T15:30:00Z,30.2513,-88.0778,6.907,17.68,1111122 
DISL,ioos:station:DISL:DISL:1,2009-12-02T16:00:00Z,30.2513,-88.0778,6.808,18.73,1111122 
DISL,ioos:station:DISL:DISL:1,2009-12-02T16:30:00Z,30.2513,-88.0778,6.535,18.66,1111122 
DISL,ioos:station:DISL:DISL:1,2009-12-02T17:00:00Z,30.2513,-88.0778,6.416,20.27,1111122 
DISL,ioos:station:DISL:DISL:1,2009-12-02T17:30:00Z,30.2513,-88.0778,6.56,20.89,1111122 
DISL,ioos:station:DISL:DISL:1,2009-12-02T18:00:00Z,30.2513,-88.0778,6.788,21.03,1111122 
DISL,ioos:station:DISL:DISL:1,2009-12-02T18:30:00Z,30.2513,-88.0778,7.09,20.32,1111122 
DISL,ioos:station:DISL:DISL:1,2009-12-02T19:00:00Z,30.2513,-88.0778,7.15,20.29,1111122 
DISL,ioos:station:DISL:DISL:1,2009-12-02T19:30:00Z,30.2513,-88.0778,7.03,20.4,1111122 
DISL,ioos:station:DISL:DISL:1,2009-12-02T20:00:00Z,30.2513,-88.0778,6.939,19.76,1111122 
DISL,ioos:station:DISL:DISL:1,2009-12-02T20:30:00Z,30.2513,-88.0778,7.21,19.25,1111122 
DISL,ioos:station:DISL:DISL:1,2009-12-02T21:00:00Z,30.2513,-88.0778,7.33,23.12,1111122 
DISL,ioos:station:DISL:DISL:1,2009-12-02T21:30:00Z,30.2513,-88.0778,7.55,25.36,1111122 
DISL,ioos:station:DISL:DISL:1,2009-12-02T22:00:00Z,30.2513,-88.0778,7.67,29.03,1111122 
DISL,ioos:station:DISL:DISL:1,2009-12-02T22:30:00Z,30.2513,-88.0778,7.6,29.74,1111122 
DISL,ioos:station:DISL:DISL:1,2009-12-02T23:00:00Z,30.2513,-88.0778,7.55,23.97,1111122 
DISL,ioos:station:DISL:DISL:1,2009-12-02T23:30:00Z,30.2513,-88.0778,7.64,21.69,1111122 
DISL,ioos:station:DISL:DISL:1,2009-12-03T00:00:00Z,30.2513,-88.0778,7.86,21.85,1111122 
DISL,ioos:station:DISL:DISL:1,2009-12-03T00:30:00Z,30.2513,-88.0778,8.13,21.9,1111122 
DISL,ioos:station:DISL:DISL:1,2009-12-03T01:00:00Z,30.2513,-88.0778,8.19,18.51,1111122 
DISL,ioos:station:DISL:DISL:1,2009-12-03T01:30:00Z,30.2513,-88.0778,8.13,22.61,1111122 
DISL,ioos:station:DISL:DISL:1,2009-12-03T02:00:00Z,30.2513,-88.0778,8.04,21.77,1111122 
DISL,ioos:station:DISL:DISL:1,2009-12-03T02:30:00Z,30.2513,-88.0778,8.1,21.68,1111122 
DISL,ioos:station:DISL:DISL:1,2009-12-03T03:00:00Z,30.2513,-88.0778,8.1,20.41,1111122 
DISL,ioos:station:DISL:DISL:1,2009-12-03T03:30:00Z,30.2513,-88.0778,8.2,18.92,1111122 
DISL,ioos:station:DISL:DISL:1,2009-12-03T04:00:00Z,30.2513,-88.0778,8.02,25.19,1111122 
DISL,ioos:station:DISL:DISL:1,2009-12-03T04:30:00Z,30.2513,-88.0778,8.01,25.63,1111122 
DISL,ioos:station:DISL:DISL:1,2009-12-03T05:00:00Z,30.2513,-88.0778,7.99,22.4,1111122 
DISL,ioos:station:DISL:DISL:1,2009-12-03T05:30:00Z,30.2513,-88.0778,7.83,22.25,1111122 
DISL,ioos:station:DISL:DISL:1,2009-12-03T06:00:00Z,30.2513,-88.0778,7.76,19.74,1111122 
DISL,ioos:station:DISL:DISL:1,2009-12-03T06:30:00Z,30.2513,-88.0778,7.6,19.67,1111122 
DISL,ioos:station:DISL:DISL:1,2009-12-03T07:00:00Z,30.2513,-88.0778,7.48,19.92,1111122 
DISL,ioos:station:DISL:DISL:1,2009-12-03T07:30:00Z,30.2513,-88.0778,7.32,20.23,1111122 
DISL,ioos:station:DISL:DISL:1,2009-12-03T08:00:00Z,30.2513,-88.0778,7.14,20.31,1111122 
DISL,ioos:station:DISL:DISL:1,2009-12-03T08:30:00Z,30.2513,-88.0778,7.03,21.35,1111122 
DISL,ioos:station:DISL:DISL:1,2009-12-03T09:00:00Z,30.2513,-88.0778,6.891,22.4,1111122 
DISL,ioos:station:DISL:DISL:1,2009-12-03T09:30:00Z,30.2513,-88.0778,6.685,25.26,1111122 
DISL,ioos:station:DISL:DISL:1,2009-12-03T10:00:00Z,30.2513,-88.0778,6.622,28.45,1111122 
DISL,ioos:station:DISL:DISL:1,2009-12-03T10:30:00Z,30.2513,-88.0778,6.409,26.4,1111122 
DISL,ioos:station:DISL:DISL:1,2009-12-03T11:00:00Z,30.2513,-88.0778,6.308,23.31,1111122 
DISL,ioos:station:DISL:DISL:1,2009-12-03T11:30:00Z,30.2513,-88.0778,6.168,21.79,1111122 
DISL,ioos:station:DISL:DISL:1,2009-12-03T12:00:00Z,30.2513,-88.0778,6.158,20.64,1111122 
DISL,ioos:station:DISL:DISL:1,2009-12-03T12:30:00Z,30.2513,-88.0778,5.93,19.91,1111122 
DISL,ioos:station:DISL:DISL:1,2009-12-03T13:00:00Z,30.2513,-88.0778,5.967,19.04,1111122 
DISL,ioos:station:DISL:DISL:1,2009-12-03T13:30:00Z,30.2513,-88.0778,5.836,18.21,1111122 
DISL,ioos:station:DISL:DISL:1,2009-12-03T14:00:00Z,30.2513,-88.0778,5.754,17.62,1111122 
DISL,ioos:station:DISL:DISL:1,2009-12-03T14:30:00Z,30.2513,-88.0778,5.717,17.23,1111122 
DISL,ioos:station:DISL:DISL:1,2009-12-03T15:00:00Z,30.2513,-88.0778,5.73,16.77,1111122 
DISL,ioos:station:DISL:DISL:1,2009-12-03T15:30:00Z,30.2513,-88.0778,5.612,16.61,1111122 
DISL,ioos:station:DISL:DISL:1,2009-12-03T16:00:00Z,30.2513,-88.0778,5.732,16.58,1111122 
DISL,ioos:station:DISL:DISL:1,2009-12-03T16:30:00Z,30.2513,-88.0778,5.608,16.14,1111122 
DISL,ioos:station:DISL:DISL:1,2009-12-03T17:00:00Z,30.2513,-88.0778,5.66,15.71,1111122 
DISL,ioos:station:DISL:DISL:1,2009-12-03T17:30:00Z,30.2513,-88.0778,5.672,15.36,1111122 
DISL,ioos:station:DISL:DISL:1,2009-12-03T18:00:00Z,30.2513,-88.0778,5.786,15.32,1111122 
DISL,ioos:station:DISL:DISL:1,2009-12-03T18:30:00Z,30.2513,-88.0778,5.892,15.94,1111122 
DISL,ioos:station:DISL:DISL:1,2009-12-03T19:00:00Z,30.2513,-88.0778,5.996,20.73,1111122 
DISL,ioos:station:DISL:DISL:1,2009-12-03T19:30:00Z,30.2513,-88.0778,5.996,18.61,1111122 
DISL,ioos:station:DISL:DISL:1,2009-12-03T20:00:00Z,30.2513,-88.0778,5.992,17.54,1111122 
DISL,ioos:station:DISL:DISL:1,2009-12-03T20:30:00Z,30.2513,-88.0778,6.121,18.67,1111122 
DISL,ioos:station:DISL:DISL:1,2009-12-03T21:00:00Z,30.2513,-88.0778,6.332,18.07,1111122 
DISL,ioos:station:DISL:DISL:1,2009-12-03T21:30:00Z,30.2513,-88.0778,6.41,18.32,1111122 
DISL,ioos:station:DISL:DISL:1,2009-12-03T22:00:00Z,30.2513,-88.0778,6.563,18.89,1111122 
DISL,ioos:station:DISL:DISL:1,2009-12-03T22:30:00Z,30.2513,-88.0778,6.604,21.97,1111122 
DISL,ioos:station:DISL:DISL:1,2009-12-03T23:00:00Z,30.2513,-88.0778,6.709,22.46,1111122 
DISL,ioos:station:DISL:DISL:1,2009-12-03T23:30:00Z,30.2513,-88.0778,6.802,26.04,1111122 
DISL,ioos:station:DISL:DISL:1,2009-12-04T00:00:00Z,30.2513,-88.0778,7.0,25.6,1111122 
DISL,ioos:station:DISL:DISL:1,2009-12-04T00:30:00Z,30.2513,-88.0778,7.06,23.81,1111122 
DISL,ioos:station:DISL:DISL:1,2009-12-04T01:00:00Z,30.2513,-88.0778,7.24,23.58,1111122 
DISL,ioos:station:DISL:DISL:1,2009-12-04T01:30:00Z,30.2513,-88.0778,7.37,24.82,1111122 
DISL,ioos:station:DISL:DISL:1,2009-12-04T02:00:00Z,30.2513,-88.0778,7.49,27.75,1111122 
DISL,ioos:station:DISL:DISL:1,2009-12-04T02:30:00Z,30.2513,-88.0778,7.53,26.87,1111122 
DISL,ioos:station:DISL:DISL:1,2009-12-04T03:00:00Z,30.2513,-88.0778,7.62,26.08,1111122 
DISL,ioos:station:DISL:DISL:1,2009-12-04T03:30:00Z,30.2513,-88.0778,7.67,25.28,1111122 
DISL,ioos:station:DISL:DISL:1,2009-12-04T04:00:00Z,30.2513,-88.0778,7.7,19.64,1111122 
DISL,ioos:station:DISL:DISL:1,2009-12-04T04:30:00Z,30.2513,-88.0778,7.63,18.57,1111122 
DISL,ioos:station:DISL:DISL:1,2009-12-04T05:00:00Z,30.2513,-88.0778,7.61,18.35,1111122 
DISL,ioos:station:DISL:DISL:1,2009-12-04T05:30:00Z,30.2513,-88.0778,7.58,18.22,1111122 
DISL,ioos:station:DISL:DISL:1,2009-12-04T06:00:00Z,30.2513,-88.0778,7.48,18.21,1111122 
DISL,ioos:station:DISL:DISL:1,2009-12-04T06:30:00Z,30.2513,-88.0778,7.49,16.73,1111122 
DISL,ioos:station:DISL:DISL:1,2009-12-04T07:00:00Z,30.2513,-88.0778,7.36,17.75,1111122 
DISL,ioos:station:DISL:DISL:1,2009-12-04T07:30:00Z,30.2513,-88.0778,7.23,17.43,1111122 
DISL,ioos:station:DISL:DISL:1,2009-12-04T08:00:00Z,30.2513,-88.0778,7.14,16.64,1111122 
DISL,ioos:station:DISL:DISL:1,2009-12-04T08:30:00Z,30.2513,-88.0778,7.04,15.86,1111122 
DISL,ioos:station:DISL:DISL:1,2009-12-04T09:00:00Z,30.2513,-88.0778,6.935,14.43,1111122 
DISL,ioos:station:DISL:DISL:1,2009-12-04T09:30:00Z,30.2513,-88.0778,6.792,13.93,1111122 
DISL,ioos:station:DISL:DISL:1,2009-12-04T10:00:00Z,30.2513,-88.0778,6.608,14.08,1111122 
DISL,ioos:station:DISL:DISL:1,2009-12-04T10:30:00Z,30.2513,-88.0778,6.468,13.97,1111122 
DISL,ioos:station:DISL:DISL:1,2009-12-04T11:00:00Z,30.2513,-88.0778,6.471,13.93,1111122 
DISL,ioos:station:DISL:DISL:1,2009-12-04T11:30:00Z,30.2513,-88.0778,6.181,13.9,1111122 
DISL,ioos:station:DISL:DISL:1,2009-12-04T12:00:00Z,30.2513,-88.0778,5.757,13.85,1111122 
DISL,ioos:station:DISL:DISL:1,2009-12-04T12:30:00Z,30.2513,-88.0778,5.965,13.84,1111122 
DISL,ioos:station:DISL:DISL:1,2009-12-04T13:00:00Z,30.2513,-88.0778,5.913,13.85,1111122 
DISL,ioos:station:DISL:DISL:1,2009-12-04T13:30:00Z,30.2513,-88.0778,5.691,14.38,1111122 
DISL,ioos:station:DISL:DISL:1,2009-12-04T14:00:00Z,30.2513,-88.0778,5.636,14.65,1111122 
DISL,ioos:station:DISL:DISL:1,2009-12-04T14:30:00Z,30.2513,-88.0778,5.561,15.06,1111122 
DISL,ioos:station:DISL:DISL:1,2009-12-04T15:00:00Z,30.2513,-88.0778,5.413,15.74,1111122 
DISL,ioos:station:DISL:DISL:1,2009-12-04T15:30:00Z,30.2513,-88.0778,5.337,15.48,1111122 
DISL,ioos:station:DISL:DISL:1,2009-12-04T16:00:00Z,30.2513,-88.0778,5.321,14.89,1111122 
DISL,ioos:station:DISL:DISL:1,2009-12-04T16:30:00Z,30.2513,-88.0778,5.233,16.08,1111122 
DISL,ioos:station:DISL:DISL:1,2009-12-04T17:00:00Z,30.2513,-88.0778,5.29,14.63,1111122 
DISL,ioos:station:DISL:DISL:1,2009-12-04T17:30:00Z,30.2513,-88.0778,5.276,15.33,1111122 
DISL,ioos:station:DISL:DISL:1,2009-12-04T18:00:00Z,30.2513,-88.0778,5.324,14.64,1111122 
DISL,ioos:station:DISL:DISL:1,2009-12-04T18:30:00Z,30.2513,-88.0778,5.457,14.33,1111122 
DISL,ioos:station:DISL:DISL:1,2009-12-04T19:00:00Z,30.2513,-88.0778,5.334,14.22,1111122 
DISL,ioos:station:DISL:DISL:1,2009-12-04T19:30:00Z,30.2513,-88.0778,5.463,14.22,1111122 
DISL,ioos:station:DISL:DISL:1,2009-12-04T20:00:00Z,30.2513,-88.0778,5.682,15.94,1111122 
DISL,ioos:station:DISL:DISL:1,2009-12-04T20:30:00Z,30.2513,-88.0778,5.766,18.26,1111122 
DISL,ioos:station:DISL:DISL:1,2009-12-04T21:00:00Z,30.2513,-88.0778,5.808,17.04,1111122 
DISL,ioos:station:DISL:DISL:1,2009-12-04T21:30:00Z,30.2513,-88.0778,5.897,17.3,1111122 
DISL,ioos:station:DISL:DISL:1,2009-12-04T22:00:00Z,30.2513,-88.0778,5.989,15.77,1111122 
DISL,ioos:station:DISL:DISL:1,2009-12-04T22:30:00Z,30.2513,-88.0778,5.984,14.99,1111122 
DISL,ioos:station:DISL:DISL:1,2009-12-04T23:00:00Z,30.2513,-88.0778,6.332,15.28,1111122 
DISL,ioos:station:DISL:DISL:1,2009-12-04T23:30:00Z,30.2513,-88.0778,6.629,19.02,1111122 
DISL,ioos:station:DISL:DISL:1,2009-12-05T00:00:00Z,30.2513,-88.0778,6.23,20.46,1111122 
DISL,ioos:station:DISL:DISL:1,2009-12-05T00:30:00Z,30.2513,-88.0778,6.335,22.36,1111122 
DISL,ioos:station:DISL:DISL:1,2009-12-05T01:00:00Z,30.2513,-88.0778,6.732,25.97,1111122 
DISL,ioos:station:DISL:DISL:1,2009-12-05T01:30:00Z,30.2513,-88.0778,6.936,29.03,1111122 
DISL,ioos:station:DISL:DISL:1,2009-12-05T02:00:00Z,30.2513,-88.0778,7.01,25.12,1111122 
DISL,ioos:station:DISL:DISL:1,2009-12-05T02:30:00Z,30.2513,-88.0778,7.28,27.91,1111122 
DISL,ioos:station:DISL:DISL:1,2009-12-05T03:00:00Z,30.2513,-88.0778,7.16,19.48,1111122 
DISL,ioos:station:DISL:DISL:1,2009-12-05T03:30:00Z,30.2513,-88.0778,7.42,16.52,1111122 
DISL,ioos:station:DISL:DISL:1,2009-12-05T04:00:00Z,30.2513,-88.0778,7.56,16.15,1111122 
DISL,ioos:station:DISL:DISL:1,2009-12-05T04:30:00Z,30.2513,-88.0778,7.55,15.99,1111122 
DISL,ioos:station:DISL:DISL:1,2009-12-05T05:00:00Z,30.2513,-88.0778,7.09,15.97,1111122 
DISL,ioos:station:DISL:DISL:1,2009-12-05T05:30:00Z,30.2513,-88.0778,7.36,15.43,1111122 
DISL,ioos:station:DISL:DISL:1,2009-12-05T06:00:00Z,30.2513,-88.0778,7.55,15.58,1111122 
DISL,ioos:station:DISL:DISL:1,2009-12-05T06:30:00Z,30.2513,-88.0778,7.27,15.28,1111122 
DISL,ioos:station:DISL:DISL:1,2009-12-05T07:00:00Z,30.2513,-88.0778,6.992,14.68,1111122 
DISL,ioos:station:DISL:DISL:1,2009-12-05T07:30:00Z,30.2513,-88.0778,6.927,15.4,1111122 
DISL,ioos:station:DISL:DISL:1,2009-12-05T08:00:00Z,30.2513,-88.0778,7.16,14.71,1111122 
DISL,ioos:station:DISL:DISL:1,2009-12-05T08:30:00Z,30.2513,-88.0778,6.955,14.17,1111122 
DISL,ioos:station:DISL:DISL:1,2009-12-05T09:00:00Z,30.2513,-88.0778,7.08,15.36,1111122 
DISL,ioos:station:DISL:DISL:1,2009-12-05T09:30:00Z,30.2513,-88.0778,6.931,15.44,1111122 
DISL,ioos:station:DISL:DISL:1,2009-12-05T10:00:00Z,30.2513,-88.0778,6.621,15.58,1111122 
DISL,ioos:station:DISL:DISL:1,2009-12-05T10:30:00Z,30.2513,-88.0778,6.717,15.57,1111122 
DISL,ioos:station:DISL:DISL:1,2009-12-05T11:00:00Z,30.2513,-88.0778,6.627,15.59,1111122 
DISL,ioos:station:DISL:DISL:1,2009-12-05T11:30:00Z,30.2513,-88.0778,6.152,15.52,1111122 
DISL,ioos:station:DISL:DISL:1,2009-12-05T12:00:00Z,30.2513,-88.0778,6.366,15.61,1111122 
DISL,ioos:station:DISL:DISL:1,2009-12-05T12:30:00Z,30.2513,-88.0778,5.785,14.71,1111122 
DISL,ioos:station:DISL:DISL:1,2009-12-05T13:00:00Z,30.2513,-88.0778,5.909,14.79,1111122 
DISL,ioos:station:DISL:DISL:1,2009-12-05T13:30:00Z,30.2513,-88.0778,5.956,14.92,1111122 
DISL,ioos:station:DISL:DISL:1,2009-12-05T14:00:00Z,30.2513,-88.0778,5.771,14.8,1111122 
DISL,ioos:station:DISL:DISL:1,2009-12-05T14:30:00Z,30.2513,-88.0778,5.554,14.82,1111122 
DISL,ioos:station:DISL:DISL:1,2009-12-05T15:00:00Z,30.2513,-88.0778,5.554,14.63,1111122 
DISL,ioos:station:DISL:DISL:1,2009-12-05T15:30:00Z,30.2513,-88.0778,4.943,14.29,1111122 
DISL,ioos:station:DISL:DISL:1,2009-12-05T16:00:00Z,30.2513,-88.0778,5.315,14.36,1111122 
DISL,ioos:station:DISL:DISL:1,2009-12-05T16:30:00Z,30.2513,-88.0778,5.297,13.67,1111122 
DISL,ioos:station:DISL:DISL:1,2009-12-05T17:00:00Z,30.2513,-88.0778,5.232,13.57,1111122 
DISL,ioos:station:DISL:DISL:1,2009-12-05T17:30:00Z,30.2513,-88.0778,5.118,13.81,1111122 
DISL,ioos:station:DISL:DISL:1,2009-12-05T18:00:00Z,30.2513,-88.0778,5.182,13.98,1111122 
DISL,ioos:station:DISL:DISL:1,2009-12-05T18:30:00Z,30.2513,-88.0778,5.139,15.91,1111122 
DISL,ioos:station:DISL:DISL:1,2009-12-05T19:00:00Z,30.2513,-88.0778,5.221,15.54,1111122 
DISL,ioos:station:DISL:DISL:1,2009-12-05T19:30:00Z,30.2513,-88.0778,5.22,15.49,1111122 
DISL,ioos:station:DISL:DISL:1,2009-12-05T20:00:00Z,30.2513,-88.0778,5.242,15.46,1111122 
DISL,ioos:station:DISL:DISL:1,2009-12-05T20:30:00Z,30.2513,-88.0778,5.351,16.19,1111122 
DISL,ioos:station:DISL:DISL:1,2009-12-05T21:00:00Z,30.2513,-88.0778,5.358,18.22,1111122 
DISL,ioos:station:DISL:DISL:1,2009-12-05T21:30:00Z,30.2513,-88.0778,5.459,16.45,1111122 
DISL,ioos:station:DISL:DISL:1,2009-12-05T22:00:00Z,30.2513,-88.0778,5.506,15.31,1111122 
DISL,ioos:station:DISL:DISL:1,2009-12-05T22:30:00Z,30.2513,-88.0778,5.611,14.56,1111122 
DISL,ioos:station:DISL:DISL:1,2009-12-05T23:00:00Z,30.2513,-88.0778,5.746,14.61,1111122 
DISL,ioos:station:DISL:DISL:1,2009-12-05T23:30:00Z,30.2513,-88.0778,5.834,14.73,1111122 
DISL,ioos:station:DISL:DISL:1,2009-12-06T00:00:00Z,30.2513,-88.0778,5.922,15.3,1111122 
DISL,ioos:station:DISL:DISL:1,2009-12-06T00:30:00Z,30.2513,-88.0778,5.982,18.17,1111122 
DISL,ioos:station:DISL:DISL:1,2009-12-06T01:00:00Z,30.2513,-88.0778,6.081,24.12,1111122 
DISL,ioos:station:DISL:DISL:1,2009-12-06T01:30:00Z,30.2513,-88.0778,6.166,27.92,1111122 
DISL,ioos:station:DISL:DISL:1,2009-12-06T02:00:00Z,30.2513,-88.0778,6.233,29.68,1111122 
DISL,ioos:station:DISL:DISL:1,2009-12-06T02:30:00Z,30.2513,-88.0778,6.37,29.48,1111122 
DISL,ioos:station:DISL:DISL:1,2009-12-06T03:00:00Z,30.2513,-88.0778,6.521,31.09,1111122 
DISL,ioos:station:DISL:DISL:1,2009-12-06T03:30:00Z,30.2513,-88.0778,6.578,29.94,1111122 
DISL,ioos:station:DISL:DISL:1,2009-12-06T04:00:00Z,30.2513,-88.0778,6.747,29.78,1111122 
DISL,ioos:station:DISL:DISL:1,2009-12-06T04:30:00Z,30.2513,-88.0778,6.833,25.09,1111122 
DISL,ioos:station:DISL:DISL:1,2009-12-06T05:00:00Z,30.2513,-88.0778,6.934,23.57,1111122 
DISL,ioos:station:DISL:DISL:1,2009-12-06T05:30:00Z,30.2513,-88.0778,6.878,25.58,1111122 
DISL,ioos:station:DISL:DISL:1,2009-12-06T06:00:00Z,30.2513,-88.0778,6.945,16.11,1111122 
DISL,ioos:station:DISL:DISL:1,2009-12-06T06:30:00Z,30.2513,-88.0778,7.04,15.55,1111122 
DISL,ioos:station:DISL:DISL:1,2009-12-06T07:00:00Z,30.2513,-88.0778,6.911,15.06,1111122 
DISL,ioos:station:DISL:DISL:1,2009-12-06T07:30:00Z,30.2513,-88.0778,6.837,14.07,1111122 
DISL,ioos:station:DISL:DISL:1,2009-12-06T08:00:00Z,30.2513,-88.0778,6.746,13.9,1111122 
DISL,ioos:station:DISL:DISL:1,2009-12-06T08:30:00Z,30.2513,-88.0778,6.579,14.16,1111122 
DISL,ioos:station:DISL:DISL:1,2009-12-06T09:00:00Z,30.2513,-88.0778,6.744,14.17,1111122 
DISL,ioos:station:DISL:DISL:1,2009-12-06T09:30:00Z,30.2513,-88.0778,6.602,14.16,1111122 
DISL,ioos:station:DISL:DISL:1,2009-12-06T10:00:00Z,30.2513,-88.0778,6.485,14.2,1111122 
DISL,ioos:station:DISL:DISL:1,2009-12-06T10:30:00Z,30.2513,-88.0778,6.234,14.21,1111122 
DISL,ioos:station:DISL:DISL:1,2009-12-06T11:00:00Z,30.2513,-88.0778,6.259,14.15,1111122 
DISL,ioos:station:DISL:DISL:1,2009-12-06T11:30:00Z,30.2513,-88.0778,6.213,14.23,1111122 
DISL,ioos:station:DISL:DISL:1,2009-12-06T12:00:00Z,30.2513,-88.0778,5.998,14.39,1111122 
DISL,ioos:station:DISL:DISL:1,2009-12-06T12:30:00Z,30.2513,-88.0778,5.843,14.68,1111122 
DISL,ioos:station:DISL:DISL:1,2009-12-06T13:00:00Z,30.2513,-88.0778,5.891,15.35,1111122 
DISL,ioos:station:DISL:DISL:1,2009-12-06T13:30:00Z,30.2513,-88.0778,5.898,16.14,1111122 
DISL,ioos:station:DISL:DISL:1,2009-12-06T14:00:00Z,30.2513,-88.0778,5.869,16.69,1111122 
DISL,ioos:station:DISL:DISL:1,2009-12-06T14:30:00Z,30.2513,-88.0778,5.496,16.71,1111122 